TimeEDT,TemperatureF,Dew PointF,Humidity,Sea Level PressureIn,VisibilityMPH,Wind Direction,Wind SpeedMPH,Gust SpeedMPH,PrecipitationIn,Events,Conditions,WindDirDegrees,DateUTC
12:15 AM,60.8,60.8,100,30.00,0.8,NE,3.5,-,N/A,,Overcast,40,2012-10-03 04:15:00
12:35 AM,60.8,60.8,100,30.00,0.5,Calm,Calm,-,N/A,Fog,Fog,0,2012-10-03 04:35:00
12:55 AM,60.8,60.8,100,30.00,0.5,Calm,Calm,-,N/A,Fog,Fog,0,2012-10-03 04:55:00
1:15 AM,60.8,60.8,100,30.00,0.5,NNE,3.5,-,N/A,Fog,Fog,30,2012-10-03 05:15:00
1:35 AM,60.8,60.8,100,30.00,0.5,Calm,Calm,-,N/A,Fog,Fog,0,2012-10-03 05:35:00
1:55 AM,60.8,60.8,100,30.00,0.5,Calm,Calm,-,N/A,Fog,Fog,0,2012-10-03 05:55:00
2:15 AM,60.8,60.8,100,30.00,0.5,NNE,4.6,-,N/A,Fog,Fog,20,2012-10-03 06:15:00
2:35 AM,60.8,60.8,100,29.99,0.5,Calm,Calm,-,N/A,Fog,Fog,0,2012-10-03 06:35:00
2:55 AM,60.8,60.8,100,29.99,0.5,Calm,Calm,-,N/A,Fog,Fog,0,2012-10-03 06:55:00
3:15 AM,62.6,62.6,100,29.99,0.8,North,3.5,-,N/A,,Overcast,10,2012-10-03 07:15:00
3:35 AM,62.6,62.6,100,30.00,1.0,Calm,Calm,-,N/A,,Overcast,0,2012-10-03 07:35:00
3:55 AM,62.6,62.6,100,30.00,0.8,Calm,Calm,-,N/A,,Overcast,0,2012-10-03 07:55:00
4:15 AM,60.8,60.8,100,30.00,0.8,Calm,Calm,-,N/A,,Overcast,0,2012-10-03 08:15:00
4:35 AM,60.8,60.8,100,30.00,0.8,Calm,Calm,-,N/A,,Overcast,0,2012-10-03 08:35:00
4:55 AM,60.8,60.8,100,30.01,1.0,Calm,Calm,-,N/A,,Overcast,0,2012-10-03 08:55:00
5:15 AM,60.8,60.8,100,30.02,2.5,Calm,Calm,-,N/A,,Overcast,0,2012-10-03 09:15:00
5:35 AM,62.6,62.6,100,30.02,1.8,Calm,Calm,-,N/A,,Overcast,0,2012-10-03 09:35:00
5:55 AM,62.6,62.6,100,30.02,2.0,Calm,Calm,-,N/A,,Overcast,0,2012-10-03 09:55:00
6:15 AM,62.6,62.6,100,30.03,1.8,Calm,Calm,-,N/A,,Overcast,0,2012-10-03 10:15:00
6:35 AM,62.6,62.6,100,30.03,2.5,Calm,Calm,-,N/A,,Overcast,0,2012-10-03 10:35:00
6:45 AM,62.6,62.6,100,30.04,2.0,East,4.6,-,N/A,,Overcast,80,2012-10-03 10:45:00
7:45 AM,62.6,62.6,100,30.06,1.0,Calm,Calm,-,N/A,,Overcast,0,2012-10-03 11:45:00
8:45 AM,64.4,62.6,94,30.07,1.0,Calm,Calm,-,N/A,,Mist,0,2012-10-03 12:45:00
9:45 AM,64.4,62.6,94,30.08,1.0,NNW,4.6,-,N/A,Rain,Rain,340,2012-10-03 13:45:00
10:45 AM,66.2,64.4,94,30.07,1.8,Calm,Calm,-,N/A,,Overcast,0,2012-10-03 14:45:00
11:45 AM,66.2,64.4,94,30.09,1.5,Calm,Calm,-,N/A,,Overcast,0,2012-10-03 15:45:00
12:45 PM,66.2,66.2,100,30.07,1.5,Calm,Calm,-,N/A,,Overcast,0,2012-10-03 16:45:00
1:47 PM,68.0,66.2,94,30.05,1.0,Calm,Calm,-,N/A,,Overcast,0,2012-10-03 17:47:00
2:45 PM,69.8,68.0,94,30.05,1.0,Calm,Calm,-,N/A,,Overcast,0,2012-10-03 18:45:00
3:45 PM,69.8,68.0,94,30.06,1.8,Calm,Calm,-,N/A,,Overcast,0,2012-10-03 19:45:00
4:45 PM,69.8,68.0,94,30.07,1.5,Calm,Calm,-,N/A,,Overcast,0,2012-10-03 20:45:00
5:45 PM,69.8,68.0,94,30.07,1.8,Calm,Calm,-,N/A,,Overcast,0,2012-10-03 21:45:00
6:45 PM,69.8,68.0,94,30.08,1.8,Calm,Calm,-,N/A,,Overcast,0,2012-10-03 22:45:00
7:45 PM,68.0,68.0,100,30.09,1.5,Calm,Calm,-,N/A,,Overcast,0,2012-10-03 23:45:00
8:45 PM,68.0,68.0,100,30.10,1.5,Calm,Calm,-,N/A,,Overcast,0,2012-10-04 00:45:00
9:45 PM,66.2,66.2,100,30.12,1.5,Calm,Calm,-,N/A,,Overcast,0,2012-10-04 01:45:00
10:55 PM,64.4,64.4,100,30.12,0.5,Calm,Calm,-,N/A,Fog,Fog,0,2012-10-04 02:55:00
11:15 PM,64.4,64.4,100,30.12,0.2,Calm,Calm,-,N/A,Fog,Fog,0,2012-10-04 03:15:00
11:35 PM,66.2,66.2,100,30.12,2.5,Calm,Calm,-,N/A,,Overcast,0,2012-10-04 03:35:00
11:55 PM,66.2,66.2,100,30.13,3.0,Calm,Calm,-,N/A,,Overcast,0,2012-10-04 03:55:00